Time,TemperatureF,DewpointF,PressureIn,WindDirection,WindDirectionDegrees,WindSpeedMPH,WindSpeedGustMPH,Humidity,HourlyPrecipIn,Conditions,Clouds,dailyrainin,SolarRadiationWatts/m^2,SoftwareType,DateUTC
2013-03-07 00:01:00,38.1,29.0,30.04,West,263,0.0,3.0,70,0.00,,,0.00,0,weatherlink.com 1.10,2013-03-07 05:01:00,
2013-03-07 00:16:00,37.8,30.0,30.05,NNW,327,0.0,3.0,72,0.00,,,0.00,0,weatherlink.com 1.10,2013-03-07 05:16:00,
2013-03-07 00:31:00,37.4,29.0,30.05,NNW,340,2.0,3.0,72,0.00,,,0.00,0,weatherlink.com 1.10,2013-03-07 05:31:00,
2013-03-07 00:46:00,37.2,29.0,30.05,West,279,0.0,5.0,73,0.00,,,0.00,0,weatherlink.com 1.10,2013-03-07 05:46:00,
2013-03-07 01:01:00,37.0,29.0,30.06,NW,322,1.0,3.0,73,0.00,,,0.00,0,weatherlink.com 1.10,2013-03-07 06:01:00,
2013-03-07 01:16:00,36.8,29.0,30.07,WNW,289,0.0,5.0,73,0.00,,,0.00,0,weatherlink.com 1.10,2013-03-07 06:16:00,
2013-03-07 01:31:00,36.4,29.0,30.07,NNW,343,0.0,7.0,74,0.00,,,0.00,0,weatherlink.com 1.10,2013-03-07 06:31:00,
2013-03-07 01:46:00,36.4,29.0,30.07,West,274,0.0,3.0,74,0.00,,,0.00,0,weatherlink.com 1.10,2013-03-07 06:46:00,
2013-03-07 02:01:00,36.2,29.0,30.07,NNW,337,0.0,3.0,74,0.00,,,0.00,0,weatherlink.com 1.10,2013-03-07 07:01:00,
2013-03-07 02:16:00,36.2,29.0,30.08,West,266,0.0,5.0,75,0.00,,,0.00,0,weatherlink.com 1.10,2013-03-07 07:16:00,
2013-03-07 02:31:00,35.9,29.0,30.08,NW,304,0.0,2.0,75,0.00,,,0.00,0,weatherlink.com 1.10,2013-03-07 07:31:00,
2013-03-07 02:46:00,35.6,29.0,30.07,WSW,242,0.0,5.0,76,0.00,,,0.00,0,weatherlink.com 1.10,2013-03-07 07:46:00,
2013-03-07 03:02:00,35.3,29.0,30.07,WSW,252,0.0,1.0,77,0.00,,,0.00,0,weatherlink.com 1.10,2013-03-07 08:02:00,
2013-03-07 03:16:00,34.9,28.0,30.07,WSW,252,0.0,0.0,77,0.00,,,0.00,0,weatherlink.com 1.10,2013-03-07 08:16:00,
2013-03-07 03:32:00,34.5,28.0,30.07,NW,307,0.0,6.0,78,0.00,,,0.00,0,weatherlink.com 1.10,2013-03-07 08:32:00,
2013-03-07 03:47:00,35.2,29.0,30.07,WSW,242,0.0,3.0,78,0.00,,,0.00,0,weatherlink.com 1.10,2013-03-07 08:47:00,
2013-03-07 04:02:00,35.3,29.0,30.07,WSW,242,0.0,1.0,77,0.00,,,0.00,0,weatherlink.com 1.10,2013-03-07 09:02:00,
2013-03-07 04:17:00,34.7,29.0,30.07,WSW,242,0.0,1.0,78,0.00,,,0.00,0,weatherlink.com 1.10,2013-03-07 09:17:00,
2013-03-07 04:32:00,34.0,28.0,30.09,WSW,242,0.0,0.0,80,0.00,,,0.00,0,weatherlink.com 1.10,2013-03-07 09:32:00,
2013-03-07 04:47:00,33.0,28.0,30.10,WSW,242,0.0,0.0,82,0.00,,,0.00,0,weatherlink.com 1.10,2013-03-07 09:47:00,
2013-03-07 05:02:00,32.8,28.0,30.10,WSW,242,0.0,0.0,82,0.00,,,0.00,0,weatherlink.com 1.10,2013-03-07 10:02:00,
2013-03-07 05:17:00,32.3,28.0,30.10,WSW,242,0.0,0.0,84,0.00,,,0.00,0,weatherlink.com 1.10,2013-03-07 10:17:00,
2013-03-07 05:32:00,32.0,28.0,30.11,WSW,242,0.0,0.0,85,0.00,,,0.00,0,weatherlink.com 1.10,2013-03-07 10:32:00,
2013-03-07 05:47:00,32.1,28.0,30.11,WSW,242,0.0,0.0,85,0.00,,,0.00,0,weatherlink.com 1.10,2013-03-07 10:47:00,
2013-03-07 06:02:00,32.0,28.0,30.13,WSW,242,0.0,0.0,85,0.00,,,0.00,0,weatherlink.com 1.10,2013-03-07 11:02:00,
2013-03-07 06:17:00,31.3,28.0,30.14,WSW,242,0.0,0.0,86,0.00,,,0.00,0,weatherlink.com 1.10,2013-03-07 11:17:00,
2013-03-07 06:32:00,30.5,27.0,30.14,WSW,242,0.0,0.0,88,0.00,,,0.00,0,weatherlink.com 1.10,2013-03-07 11:32:00,
2013-03-07 06:47:00,30.0,28.0,30.15,WSW,242,0.0,0.0,90,0.00,,,0.00,11,weatherlink.com 1.10,2013-03-07 11:47:00,
2013-03-07 07:02:00,29.6,27.0,30.16,WSW,242,0.0,0.0,90,0.00,,,0.00,21,weatherlink.com 1.10,2013-03-07 12:02:00,
2013-03-07 07:17:00,30.0,28.0,30.17,WSW,242,0.0,0.0,91,0.00,,,0.00,33,weatherlink.com 1.10,2013-03-07 12:17:00,
2013-03-07 07:32:00,31.7,29.0,30.18,WSW,242,0.0,0.0,90,0.00,,,0.00,116,weatherlink.com 1.10,2013-03-07 12:32:00,
2013-03-07 07:47:00,35.6,31.0,30.18,West,269,0.0,2.0,82,0.00,,,0.00,160,weatherlink.com 1.10,2013-03-07 12:47:00,
2013-03-07 08:02:00,38.1,31.0,30.19,WSW,257,3.0,6.0,76,0.00,,,0.00,204,weatherlink.com 1.10,2013-03-07 13:02:00,
2013-03-07 08:17:00,40.0,32.0,30.19,WNW,292,2.0,6.0,72,0.00,,,0.00,255,weatherlink.com 1.10,2013-03-07 13:17:00,
2013-03-07 08:32:00,41.8,32.0,30.19,WNW,282,0.0,7.0,67,0.00,,,0.00,302,weatherlink.com 1.10,2013-03-07 13:32:00,
2013-03-07 09:03:00,43.6,32.0,30.19,West,262,3.0,7.0,63,0.00,,,0.00,403,weatherlink.com 1.10,2013-03-07 14:03:00,
2013-03-07 09:18:00,44.6,31.0,30.20,NW,323,7.0,7.0,60,0.00,,,0.00,450,weatherlink.com 1.10,2013-03-07 14:18:00,
2013-03-07 09:33:00,45.3,32.0,30.19,NNW,348,4.0,6.0,59,0.00,,,0.00,497,weatherlink.com 1.10,2013-03-07 14:33:00,
2013-03-07 09:48:00,46.5,31.0,30.19,West,261,4.0,12.0,56,0.00,,,0.00,541,weatherlink.com 1.10,2013-03-07 14:48:00,
2013-03-07 10:03:00,47.0,31.0,30.18,WSW,238,3.0,8.0,54,0.00,,,0.00,585,weatherlink.com 1.10,2013-03-07 15:03:00,
2013-03-07 10:18:00,47.3,31.0,30.19,NNW,330,1.0,8.0,53,0.00,,,0.00,584,weatherlink.com 1.10,2013-03-07 15:18:00,
2013-03-07 10:33:00,47.2,30.0,30.19,North,350,2.0,10.0,52,0.00,,,0.00,752,weatherlink.com 1.10,2013-03-07 15:33:00,
2013-03-07 10:48:00,47.9,31.0,30.19,WSW,248,3.0,9.0,52,0.00,,,0.00,772,weatherlink.com 1.10,2013-03-07 15:48:00,
2013-03-07 11:03:00,48.5,31.0,30.18,North,355,0.0,11.0,52,0.00,,,0.00,227,weatherlink.com 1.10,2013-03-07 16:03:00,
2013-03-07 11:18:00,48.4,30.0,30.18,WNW,298,2.0,6.0,50,0.00,,,0.00,810,weatherlink.com 1.10,2013-03-07 16:18:00,
2013-03-07 11:33:00,48.7,30.0,30.18,NNW,327,0.0,8.0,49,0.00,,,0.00,243,weatherlink.com 1.10,2013-03-07 16:33:00,
2013-03-07 11:48:00,48.4,31.0,30.18,SW,229,4.0,14.0,51,0.00,,,0.00,220,weatherlink.com 1.10,2013-03-07 16:48:00,
2013-03-07 12:03:00,49.1,31.0,30.17,NW,323,3.0,6.0,50,0.00,,,0.00,309,weatherlink.com 1.10,2013-03-07 17:03:00,
2013-03-07 12:18:00,49.6,31.0,30.17,North,5,2.0,7.0,49,0.00,,,0.00,218,weatherlink.com 1.10,2013-03-07 17:18:00,
2013-03-07 12:33:00,49.1,30.0,30.17,WSW,242,5.0,10.0,49,0.00,,,0.00,997,weatherlink.com 1.10,2013-03-07 17:33:00,
2013-03-07 12:48:00,49.0,31.0,30.16,SSW,201,2.0,10.0,50,0.00,,,0.00,956,weatherlink.com 1.10,2013-03-07 17:48:00,
2013-03-07 13:03:00,48.7,31.0,30.15,West,277,2.0,9.0,50,0.00,,,0.00,302,weatherlink.com 1.10,2013-03-07 18:03:00,
2013-03-07 13:18:00,49.9,31.0,30.15,NW,311,0.0,10.0,49,0.00,,,0.00,329,weatherlink.com 1.10,2013-03-07 18:18:00,
2013-03-07 13:33:00,50.6,31.0,30.14,WNW,301,2.0,11.0,48,0.00,,,0.00,652,weatherlink.com 1.10,2013-03-07 18:33:00,
2013-03-07 13:48:00,51.2,32.0,30.14,West,275,5.0,8.0,48,0.00,,,0.00,916,weatherlink.com 1.10,2013-03-07 18:48:00,
2013-03-07 14:03:00,51.4,31.0,30.14,NW,325,5.0,12.0,45,0.00,,,0.00,786,weatherlink.com 1.10,2013-03-07 19:03:00,
2013-03-07 14:18:00,51.4,31.0,30.14,WNW,284,4.0,11.0,45,0.00,,,0.00,216,weatherlink.com 1.10,2013-03-07 19:18:00,
2013-03-07 14:34:00,50.3,31.0,30.14,SSW,206,6.0,15.0,47,0.00,,,0.00,663,weatherlink.com 1.10,2013-03-07 19:34:00,
2013-03-07 14:48:00,51.3,31.0,30.14,North,10,1.0,8.0,47,0.00,,,0.00,571,weatherlink.com 1.10,2013-03-07 19:48:00,
2013-03-07 15:03:00,52.2,31.0,30.14,West,281,4.0,8.0,44,0.00,,,0.00,541,weatherlink.com 1.10,2013-03-07 20:03:00,
2013-03-07 15:18:00,50.9,30.0,30.13,NNE,12,2.0,6.0,45,0.00,,,0.00,220,weatherlink.com 1.10,2013-03-07 20:18:00,
2013-03-07 15:34:00,51.3,31.0,30.14,West,281,2.0,10.0,46,0.00,,,0.00,552,weatherlink.com 1.10,2013-03-07 20:34:00,
2013-03-07 15:49:00,51.3,31.0,30.14,WNW,291,4.0,7.0,47,0.00,,,0.00,446,weatherlink.com 1.10,2013-03-07 20:49:00,
2013-03-07 16:04:00,52.1,31.0,30.14,NNE,13,2.0,6.0,44,0.00,,,0.00,417,weatherlink.com 1.10,2013-03-07 21:04:00,
2013-03-07 16:19:00,52.4,31.0,30.14,West,276,3.0,5.0,44,0.00,,,0.00,362,weatherlink.com 1.10,2013-03-07 21:19:00,
2013-03-07 16:34:00,52.2,32.0,30.14,NE,37,1.0,5.0,46,0.00,,,0.00,302,weatherlink.com 1.10,2013-03-07 21:34:00,
2013-03-07 16:49:00,50.3,31.0,30.15,NNW,336,0.0,5.0,47,0.00,,,0.00,69,weatherlink.com 1.10,2013-03-07 21:49:00,
2013-03-07 17:04:00,50.2,31.0,30.15,NW,311,0.0,4.0,48,0.00,,,0.00,193,weatherlink.com 1.10,2013-03-07 22:04:00,
2013-03-07 17:19:00,50.5,31.0,30.16,WNW,295,2.0,4.0,47,0.00,,,0.00,137,weatherlink.com 1.10,2013-03-07 22:19:00,
2013-03-07 17:34:00,50.2,32.0,30.16,North,360,0.0,5.0,49,0.00,,,0.00,70,weatherlink.com 1.10,2013-03-07 22:34:00,
2013-03-07 17:49:00,49.2,31.0,30.17,SW,216,0.0,4.0,49,0.00,,,0.00,33,weatherlink.com 1.10,2013-03-07 22:49:00,
2013-03-07 18:04:00,48.0,29.0,30.18,NNW,345,1.0,5.0,49,0.00,,,0.00,12,weatherlink.com 1.10,2013-03-07 23:04:00,
2013-03-07 18:19:00,46.9,30.0,30.18,NNW,338,0.0,2.0,52,0.00,,,0.00,0,weatherlink.com 1.10,2013-03-07 23:19:00,
2013-03-07 18:34:00,45.8,29.0,30.19,NE,34,0.0,3.0,53,0.00,,,0.00,0,weatherlink.com 1.10,2013-03-07 23:34:00,
2013-03-07 18:49:00,45.1,29.0,30.20,NNE,25,0.0,0.0,54,0.00,,,0.00,0,weatherlink.com 1.10,2013-03-07 23:49:00,
2013-03-07 19:04:00,44.2,29.0,30.20,NNE,25,0.0,1.0,56,0.00,,,0.00,0,weatherlink.com 1.10,2013-03-08 00:04:00,
2013-03-07 19:19:00,43.2,29.0,30.21,North,11,0.0,2.0,58,0.00,,,0.00,0,weatherlink.com 1.10,2013-03-08 00:19:00,
2013-03-07 19:34:00,43.0,29.0,30.22,WNW,300,0.0,2.0,57,0.00,,,0.00,0,weatherlink.com 1.10,2013-03-08 00:34:00,
2013-03-07 19:49:00,42.7,28.0,30.22,NW,306,0.0,5.0,57,0.00,,,0.00,0,weatherlink.com 1.10,2013-03-08 00:49:00,
2013-03-07 20:04:00,42.5,28.0,30.23,WNW,290,0.0,1.0,56,0.00,,,0.00,0,weatherlink.com 1.10,2013-03-08 01:04:00,
2013-03-07 20:19:00,42.1,28.0,30.23,East,92,0.0,2.0,57,0.00,,,0.00,0,weatherlink.com 1.10,2013-03-08 01:19:00,
2013-03-07 20:34:00,41.6,28.0,30.23,NW,325,0.0,2.0,58,0.00,,,0.00,0,weatherlink.com 1.10,2013-03-08 01:34:00,
2013-03-07 20:49:00,41.0,28.0,30.24,NW,316,0.0,1.0,60,0.00,,,0.00,0,weatherlink.com 1.10,2013-03-08 01:49:00,
2013-03-07 21:04:00,40.5,27.0,30.25,NW,316,0.0,0.0,60,0.00,,,0.00,0,weatherlink.com 1.10,2013-03-08 02:04:00,
2013-03-07 21:19:00,39.8,28.0,30.25,WNW,290,0.0,2.0,62,0.00,,,0.00,0,weatherlink.com 1.10,2013-03-08 02:19:00,
2013-03-07 21:34:00,39.5,28.0,30.25,West,277,0.0,4.0,63,0.00,,,0.00,0,weatherlink.com 1.10,2013-03-08 02:34:00,
2013-03-07 21:49:00,39.5,28.0,30.25,WSW,238,0.0,3.0,63,0.00,,,0.00,0,weatherlink.com 1.10,2013-03-08 02:49:00,
2013-03-07 22:04:00,38.9,28.0,30.25,WSW,238,0.0,0.0,64,0.00,,,0.00,0,weatherlink.com 1.10,2013-03-08 03:04:00,
2013-03-07 22:34:00,37.4,27.0,30.25,WSW,238,0.0,0.0,66,0.00,,,0.00,0,weatherlink.com 1.10,2013-03-08 03:34:00,
2013-03-07 22:49:00,36.4,27.0,30.26,WSW,238,0.0,0.0,68,0.00,,,0.00,0,weatherlink.com 1.10,2013-03-08 03:49:00,
2013-03-07 23:04:00,36.3,27.0,30.25,WSW,238,0.0,0.0,69,0.00,,,0.00,0,weatherlink.com 1.10,2013-03-08 04:04:00,
2013-03-07 23:19:00,35.5,27.0,30.26,WSW,238,0.0,0.0,70,0.00,,,0.00,0,weatherlink.com 1.10,2013-03-08 04:19:00,
2013-03-07 23:34:00,35.7,26.0,30.25,WSW,238,0.0,0.0,69,0.00,,,0.00,0,weatherlink.com 1.10,2013-03-08 04:34:00,
2013-03-07 23:49:00,35.1,27.0,30.25,WSW,238,0.0,0.0,71,0.00,,,0.00,0,weatherlink.com 1.10,2013-03-08 04:49:00,